User: anonymous
Location: Unspecified
(0.0000°N, 0.0000°E)
Time: 12:00:02
(UTC+02:00)
Language:

Cosmos 1072 Rocket - Orbit

View from above orbital plane
View from above orbital plane
View from above satellite
View from above satellite

Ground track
Ground track

The orbit data is extracted from the following two-line orbital elements,

1 11239U 79003B   14236.11771021  .00000063  00000-0  49092-4 0  3497
2 11239 082.9393 131.6381 0041277 026.3557 139.4969 13.75728547786498
Epoch (UTC): 24 August 2014 02:49:30
Eccentricity: 0.0041277
inclination: 82.9393°
perigee height: 949 km
apogee height: 1009 km
right ascension of ascending node: 131.6381°
argument of perigee: 26.3557°
revolutions per day: 13.75728547
mean anomaly at epoch: 139.4969°
orbit number at epoch: 78649

The dashed part of the orbit path shows where the satellite is in the earth's shadow,  

DLR